Location: Go�ngahuizen
(53.0821°N, 5.8849°E)
Time: 18:00:25
(UTC+00:00)

Cosmos 2058 - Pass Details

Date: 09 April 2020
Orbit: 563 x 583 km, 82.5° (Epoch: 25 May)

Event Time Altitude Azimuth Distance (km) Brightness Sun altitude
Rises 20:49:00 0° 343° (NNW) 2,776 7.5 -19.2°
Reaches altitude 10° 20:51:16 10° 336° (NNW) 1,876 6.6 -19.5°
Maximum altitude 20:55:08 40° 267° (W) 845 4.0 -19.9°
Enters shadow 20:57:30 20° 208° (SSW) 1,327 4.6 -20.1°
